Home > Weather > Lillehammer > Past weeks

Flag for Norway Past Weather in Lillehammer, Norway — Yesterday and Last 2 Weeks

Now
55 °F

Cool.


Feels Like: 55 °F
Forecast: 43 / 64 °F
Wind: 3 mph from Southeast

Location: Lillehammer-Saetherengen

Current Time: Jul 2, 2016 at 9:44:00 AM

Latest Report: Jul 2, 2016 at 9:00 AM


Visibility: N/A

Pressure: 29.57 "Hg

Humidity: 80%

Dew Point: 49 °F

Location of LillehammerLocation

Past Weather in Lillehammer — Graph

°F

Lillehammer Temperature Yesterday

Maximum temperature yesterday: 60 °F (at 12:00 PM)
Minimum temperature yesterday: 52 °F (at 3:00 AM)
Average temperature yesterday: 54 °F

High & Low Weather Summary for the Past Weeks

 TemperatureHumidityPressure
High77 °F (Jun 25, 5:00 PM)96% (Jun 25, 12:00 AM)30.12 "Hg (Jun 25, 12:00 AM)
Low42 °F (Jun 20, 5:00 AM)26% (Jun 28, 6:00 PM)29.55 "Hg (Jun 17, 2:00 PM)
Average59 °F70%29.80 "Hg
* Reported Jun 17 8:00 AM — Jul 2 8:00 AM, Lillehammer, Weather by CustomWeather, © 2016

Note: Actual official high and low records may vary slightly from our data, if they occured in-between our weather recording intervals... More about our weather records

Advertising

Lillehammer Weather History for the Previous 24 Hours

Scroll right to see more
 ConditionsComfort  
Time TempWeatherWind HumidityBarometerVisibility
8:00 AM
Sat, Jul 2
54 °FCool.3 mph82%29.58 "HgN/A
7:00 AM53 °FCool.3 mph85%29.59 "HgN/A
6:00 AM53 °FCool.3 mph83%29.59 "HgN/A
5:00 AM52 °FCool.2 mph84%29.61 "HgN/A
4:00 AM53 °FCool.5 mph86%29.61 "HgN/A
3:00 AM53 °FCool.5 mph86%29.61 "HgN/A
2:00 AM54 °FCool.6 mph87%29.61 "HgN/A
1:00 AM54 °FCool.3 mph91%29.60 "HgN/A
12:00 AM54 °FCool.3 mph88%29.60 "HgN/A
11:00 PM
Fri, Jul 1
54 °FCool.3 mph88%29.61 "HgN/A
10:00 PM54 °FCool.3 mph89%29.61 "HgN/A
9:00 PM54 °FCool.5 mph90%29.60 "HgN/A
8:00 PM54 °FCool.2 mph90%29.60 "HgN/A
7:00 PM54 °FCool.2 mph89%29.61 "HgN/A
6:00 PM54 °FCool.3 mph89%29.63 "HgN/A
5:00 PM53 °FCool.1 mph93%29.64 "HgN/A
4:00 PM54 °FCool.1 mph89%29.65 "HgN/A
3:00 PM56 °FCool.1 mph82%29.65 "HgN/A
2:00 PM56 °FCool.2 mph83%29.67 "HgN/A
1:00 PM54 °FCool.5 mph85%29.68 "HgN/A
12:00 PM60 °FCool.3 mph76%29.66 "HgN/A
11:00 AM55 °FCool.2 mph85%29.69 "HgN/A
10:00 AM57 °FCool.3 mph73%29.69 "HgN/A
9:00 AM56 °FCool.3 mph76%29.70 "HgN/A
Weather by CustomWeather, © 2016

See weather overviewHow to use our weather pages